Change the Weather History Date:

Friday, November 15, 2013

  Actual Average Record
Temperature  
Mean Temperature 40 °F -  
Max Temperature 52 °F 41 °F 67 °F (1953)
Min Temperature 28 °F 24 °F -2 °F (1933)
Degree Days  
Heating Degree Days 25    
Moisture  
Dew Point 31 °F    
Average Humidity 75    
Maximum Humidity 92    
Minimum Humidity 53    
Precipitation  
Precipitation 0.00 in - - ()
Sea Level Pressure  
Sea Level Pressure 29.86 in    
Wind  
Wind Speed 5 mph (SSW)    
Max Wind Speed 9 mph    
Max Gust Speed -    
Visibility 10 miles    
Events      
Averages and records for this station are not official NWS values.
T = Trace of Precipitation, MM = Missing Value Source: NWS Daily Summary

Daily Weather History Graph

Daily Weather History Graph

Search for Another Location

Airport or City:

Trip Planner

Search our weather history database for the weather conditions in past years. The results will help you decide how hot, cold, wet, or windy it might be!

Date:

Astronomy

Nov. 15, 2013 Rise Set
Actual Time 6:57 AM CST 4:32 PM CST
Civil Twilight 6:26 AM CST 5:04 PM CST
Nautical Twilight 5:50 AM CST 5:39 PM CST
Astronomical Twilight 5:16 AM CST 6:13 PM CST
Moon 3:32 PM CST (11/15) 4:50 AM CST (11/15)
Length of Visible Light 10h 37m
Length of Day
9h 34m
Waxing Gibbous, 96% of the Moon is Illuminated
Nov 15
Waxing Gibbous
Nov 17
Full
Nov 25
Last Quarter
Dec 2
New
Dec 9
First Quarter

Hourly Weather History & Observations

Time (CST) Temp. Windchill Dew Point Humidity Pressure Visibility Wind Dir Wind Speed Gust Speed Precip Events Conditions
12:54 AM 34.0 °F 31.0 °F 27.0 °F 75% 29.83 in 10.0 mi SW 3.5 mph - N/A   Clear
1:54 AM 30.9 °F 25.2 °F 26.1 °F 82% 29.85 in 10.0 mi SW 5.8 mph - N/A   Clear
2:54 AM 30.0 °F 24.1 °F 26.1 °F 85% 29.86 in 10.0 mi SW 5.8 mph - N/A   Clear
3:54 AM 30.0 °F 25.2 °F 26.1 °F 85% 29.86 in 10.0 mi SW 4.6 mph - N/A   Clear
4:54 AM 30.0 °F 26.5 °F 26.1 °F 85% 29.87 in 10.0 mi WSW 3.5 mph - N/A   Clear
5:54 AM 28.9 °F 22.8 °F 25.0 °F 85% 29.87 in 10.0 mi SW 5.8 mph - N/A   Clear
6:54 AM 28.9 °F - 26.1 °F 89% 29.88 in 8.0 mi Calm Calm - N/A   Clear
7:54 AM 32.0 °F - 30.0 °F 92% 29.89 in 6.0 mi Calm Calm - N/A   Clear
8:54 AM 37.9 °F 32.7 °F 34.0 °F 86% 29.90 in 8.0 mi West 6.9 mph - N/A   Clear
9:54 AM 41.0 °F 36.4 °F 35.1 °F 79% 29.90 in 10.0 mi WNW 6.9 mph - N/A   Clear
10:54 AM 45.0 °F 42.6 °F 36.0 °F 71% 29.91 in 10.0 mi West 4.6 mph - N/A   Clear
11:54 AM 48.0 °F - 36.0 °F 63% 29.89 in 10.0 mi WSW 4.6 mph - N/A   Clear
12:54 PM 50.0 °F - 36.0 °F 59% 29.86 in 10.0 mi Variable 3.5 mph - N/A   Clear
1:54 PM 52.0 °F - 35.1 °F 53% 29.85 in 10.0 mi SSW 9.2 mph - N/A   Clear
2:54 PM 51.1 °F - 35.1 °F 54% 29.84 in 10.0 mi South 6.9 mph - N/A   Clear
3:54 PM 48.0 °F - 33.1 °F 56% 29.85 in 10.0 mi South 4.6 mph - N/A   Clear
4:54 PM 45.0 °F 41.8 °F 33.1 °F 63% 29.85 in 10.0 mi South 5.8 mph - N/A   Clear
5:54 PM 41.0 °F 38.0 °F 32.0 °F 70% 29.86 in 10.0 mi South 4.6 mph - N/A   Clear
6:54 PM 41.0 °F 38.0 °F 32.0 °F 70% 29.85 in 10.0 mi South 4.6 mph - N/A   Clear
7:54 PM 41.0 °F 39.0 °F 32.0 °F 70% 29.83 in 10.0 mi South 3.5 mph - N/A   Clear
8:54 PM 37.9 °F 33.5 °F 30.9 °F 76% 29.84 in 10.0 mi South 5.8 mph - N/A   Clear
9:54 PM 37.0 °F 31.6 °F 30.9 °F 79% 29.83 in 10.0 mi SSE 6.9 mph - N/A   Clear
10:54 PM 36.0 °F 30.3 °F 32.0 °F 86% 29.83 in 10.0 mi South 6.9 mph - N/A   Clear
11:54 PM 35.1 °F 29.3 °F 30.9 °F 85% 29.81 in 10.0 mi South 6.9 mph - N/A   Clear